Location: Demmingen
(48.6757°N, 10.4375°E)
Time: 21:44:54
(UTC+00:00)

Cosmos 1703 - Pass Details

Date: 23 May 2024
Orbit: 486 x 499 km, 82.5° (Epoch: 14 June)

Event Time Altitude Azimuth Distance (km) Brightness Sun altitude
Exits shadow 02:01:14 15° 194° (SSW) 1,429 4.9 -11.4°
Maximum altitude 02:04:18 78° 280° (W) 518 3.1 -11.1°
Drops below altitude 10° 02:08:03 10° 7° (N) 1,713 6.8 -10.7°
Sets 02:10:11 0° 9° (N) 2,599 7.8 -10.4°
